METEOR 2-5

导读

METEOR 2-5是独联体(CIS)继承自苏联航天计划的第二代“流星”(Meteor)极轨气象卫星,于1979年10月31日08:00发射升空。作为流星系列第二代业务卫星,它运行在约900公里高度的极轨道上,主要任务是获取全球大气云图、监测气象要素,为气象预报和气候研究提供观测数据,延续了苏联气象卫星组网观测的能力,是该时期全球气象监测网络的重要组成部分。

Basic Information
目录编号:
11605
目录名称:
METEOR 2-5
国际标识:
1979-095A
轨道中心:
EARTH
卫星名称:
METEOR 2-5
卫星全名:
--
卫星状态:
在轨 (已飞行17118 天)
发射日期:
1979-10-31 UTC
国别 :
俄罗斯(独联体) (CIS)
星等 :
--
This satellite is enrolled in the Space Conjunction Data Service (SCDS) and the current flight risk assessment level is: No High Risk
Orbit Information
数据来源 国际轨道数据 AOE轨道数据
星历时间 2026-09-12T01:03:57+0800
10小时前
查看轨道信息
2026-09-11T00:00:00+0800
1天前
查看轨道信息
半长轴 7246.152km 7246.152km
偏心率 0.0015505 0.0015507
轨道倾角 81.210° 81.211°
近地点辐角 24.695° 27.739°
升交点赤经 147.197° 148.213°
平近点角 335.496° 83.470°
近地点 856.779km 856.778km
远地点 879.251km 879.252km
周期 102.311分钟 102.311分钟
每日圈数 14.07478 14.07478
Detailed Information
使用方式:
暂无
2D Orbit Map
3D Orbit Map
Orbit Altitude Analysis Chart
Orbit Inclination Analysis Chart
Orbit Comprehensive Analysis Chart
View Comprehensive Chart
Miss Distance Evolution Trend with All Objects
Collision Probability Evolution Trend with All Objects